Terug naar catalogus

FENGYUN 1C DEB

LostPO
NORAD 31935·DEBRIS·🇨🇳 China

Gelanceerd May 10, 1999 vanaf Taiyuan Satellite Launch Center

Loading…

Volgende Passages (komende 24 uur)

TLE

VerouderdSource: Space-Track

Epoch: Oct 10, 2022, 07:19 UTC

1 31935U 99025CML 22283.30510883  .00006126  00000-0  28217-2 0  9998
2 31935  99.7311 106.6558 0067798 214.0246 145.6570 14.20273398789360

Volg FENGYUN 1C DEB in realtime met AllMySat

Download on the App Store